Flood From: 19-02-2018 06:00 Until: 20-02-2018 06:00 warning for: Flood Level: Yellow info button

Although rather usual in this region, locally or potentially dangerous phenomena are expected. (such as local winds, summer thunderstorms, rising streams or high waves) Be aware and pay attention to the latest weather updates, especially if you carry out activities exposed to weather or close to a stream or shoreline. 


Meteo18 Weather Cam more information Meteo18 Weather Cam


Thunder radar more information blitzortung!


Rain radar more information rain snow radar


Visit our other weather sites:

Template documentation
and downloads

And another site



Weather Underground History page Text

Daily Summary for August 26, 2016 Units:  Metric    English   Both
« Previous Day
Next Day »
Daily Weekly Monthly Yearly Custom
  High: Low: Average:
Temperature: -17.8 °C -7.7 °C -2.8 °C
Dew Point: -17.8 °C -12.2 °C -10.3 °C
Humidity: Humidity % 21 % 48 %
Wind Speed: 0 km/h 0 km/h 4 km/h
Wind Gust: 0 km/h - -
Wind:- - SSW
Pressure: 0 hPa 34337.4 hPa -
Precipitation: 0 mm    
Historical Graphs
 
 
Tabular Data for August 26, 2016
Time Temperature Dew Point Pressure Wind Wind Speed Wind Gust Humidity Rainfall Rate (Hourly)
-17.8 °C -17.8 °C 0 hPa Calm     Humidity % 0 mm
00:02 -4.9 °C -9.1 °C 34337.4 hPa Calm   2.6 km/h 63 % 0 mm
00:12 -5 °C -9 °C 34337.4 hPa Calm   2.6 km/h 64 % 0 mm
00:17 -4.9 °C -8.9 °C 34337.4 hPa Calm     64 % 0 mm
00:22 -4.9 °C -8.9 °C 34337.4 hPa Calm     64 % 0 mm
00:32 -5.2 °C -9 °C 34337.4 hPa Calm     65 % 0 mm
00:37 -5.1 °C -9.1 °C 34337.4 hPa Calm     64 % 0 mm
00:42 -5.1 °C -9.1 °C 34337.4 hPa Calm     64 % 0 mm
00:47 -5.1 °C -9.1 °C 34337.4 hPa Calm     64 % 0 mm
00:52 -5.2 °C -9.2 °C 34337.4 hPa Calm     64 % 0 mm
00:57 -5.3 °C -9.1 °C 34337.4 hPa Calm     66 % 0 mm
01:02 -5.3 °C -9.1 °C 34337.4 hPa Calm     66 % 0 mm
01:12 -5.4 °C -9.1 °C 34337.4 hPa Calm     66 % 0 mm
01:17 -5.4 °C -8.9 °C 34347.6 hPa Calm     68 % 0 mm
01:22 -5.5 °C -9.1 °C 34337.4 hPa Calm     67 % 0 mm
01:32 -5.6 °C -9.1 °C 34347.6 hPa Calm     68 % 0 mm
01:37 -5.5 °C -8.9 °C 34347.6 hPa Calm     68 % 0 mm
01:42 -5.5 °C -9.1 °C 34347.6 hPa Calm     67 % 0 mm
01:47 -5.7 °C -9.2 °C 34347.6 hPa Calm     68 % 0 mm
01:52 -5.7 °C -9 °C 34347.6 hPa Calm     69 % 0 mm
01:57 -5.7 °C -8.9 °C 34347.6 hPa Calm     69 % 0 mm
02:02 -5.7 °C -9 °C 34347.6 hPa Calm     69 % 0 mm
02:12 -5.9 °C -9.2 °C 34347.6 hPa Calm     69 % 0 mm
02:17 -5.9 °C -9.2 °C 34347.6 hPa Calm     69 % 0 mm
02:22 -6.1 °C -9.1 °C 34347.6 hPa Calm     71 % 0 mm
02:27 -6.1 °C -9.1 °C 34347.6 hPa Calm     71 % 0 mm
02:32 -6 °C -9.1 °C 34347.6 hPa Calm     71 % 0 mm
02:37 -6.1 °C -9.1 °C 34347.6 hPa Calm     71 % 0 mm
02:42 -6.1 °C -9.1 °C 34347.6 hPa Calm     71 % 0 mm
02:47 -6.2 °C -9.2 °C 34347.6 hPa Calm     71 % 0 mm
02:52 -6.3 °C -9.3 °C 34347.6 hPa Calm     71 % 0 mm
02:57 -6.3 °C -9.1 °C 34347.6 hPa Calm     73 % 0 mm
03:02 -6.3 °C -9.2 °C 34347.6 hPa Calm     72 % 0 mm
03:12 -6.4 °C -9.1 °C 34347.6 hPa Calm     74 % 0 mm
03:17 -6.4 °C -9.1 °C 34347.6 hPa Calm     74 % 0 mm
03:22 -6.4 °C -9.1 °C 34347.6 hPa Calm     74 % 0 mm
03:32 -6.4 °C -9.2 °C 34347.6 hPa Calm     73 % 0 mm
03:37 -6.4 °C -9.2 °C 34347.6 hPa Calm     73 % 0 mm
03:42 -6.4 °C -9.2 °C 34347.6 hPa Calm     73 % 0 mm
03:47 -6.4 °C -9.2 °C 34347.6 hPa Calm     73 % 0 mm
03:52 -6.5 °C -9.3 °C 34347.6 hPa Calm     73 % 0 mm
03:57 -6.6 °C -9.2 °C 34347.6 hPa Calm     74 % 0 mm
04:07 -6.8 °C -9.3 °C 34347.6 hPa Calm     75 % 0 mm
04:12 -6.9 °C -9.4 °C 34361.1 hPa Calm     75 % 0 mm
04:17 -6.9 °C -9.3 °C 34347.6 hPa Calm     76 % 0 mm
04:22 -6.9 °C -9.4 °C 34347.6 hPa Calm     75 % 0 mm
04:32 -7.1 °C -9.3 °C 34361.1 hPa Calm     77 % 0 mm
04:37 -6.9 °C -9.2 °C 34361.1 hPa Calm     77 % 0 mm
04:42 -6.9 °C -9.4 °C 34361.1 hPa West 2.6 km/h   75 % 0 mm
04:47 -6.8 °C -9.4 °C 34361.1 hPa Calm   5.1 km/h 75 % 0 mm
04:52 -6.7 °C -9.2 °C 34361.1 hPa Calm   5.1 km/h 75 % 0 mm
05:02 -6.6 °C -9.4 °C 34361.1 hPa NNW 2.6 km/h 5.1 km/h 73 % 0 mm
05:07 -6.7 °C -9.4 °C 34361.1 hPa Calm   2.6 km/h 74 % 0 mm
05:17 -6.8 °C -9.4 °C 34361.1 hPa Calm   2.6 km/h 75 % 0 mm
05:22 -6.9 °C -9.3 °C 34361.1 hPa Calm   2.6 km/h 76 % 0 mm
05:32 -7 °C -9.4 °C 34361.1 hPa Calm     76 % 0 mm
05:42 -7.1 °C -9.4 °C 34361.1 hPa Calm     77 % 0 mm
05:52 -7.3 °C -9.4 °C 34361.1 hPa Calm     78 % 0 mm
06:02 -7.2 °C -9.1 °C 34361.1 hPa Calm     80 % 0 mm
06:07 -7.1 °C -9.2 °C 34361.1 hPa Calm     79 % 0 mm
06:12 -7.2 °C -9.2 °C 34371.3 hPa Calm     79 % 0 mm
06:17 -7.3 °C -9.2 °C 34371.3 hPa Calm     80 % 0 mm
06:22 -7.4 °C -9.3 °C 34371.3 hPa Calm     80 % 0 mm
06:32 -7.4 °C -9.3 °C 34371.3 hPa Calm     81 % 0 mm
06:47 -7.7 °C -9.4 °C 34371.3 hPa Calm     82 % 0 mm
06:52 -7.7 °C -9.4 °C 34371.3 hPa Calm     82 % 0 mm
07:02 -7.7 °C -9.3 °C 34371.3 hPa Calm     83 % 0 mm
07:12 -7.7 °C -9.3 °C 34384.8 hPa Calm     83 % 0 mm
07:17 -7.6 °C -9.3 °C 34384.8 hPa Calm     82 % 0 mm
07:22 -7.4 °C -9.2 °C 34384.8 hPa Calm     82 % 0 mm
07:32 -7.3 °C -9.2 °C 34384.8 hPa Calm     80 % 0 mm
07:37 -7.2 °C -9.3 °C 34384.8 hPa Calm     79 % 0 mm
07:42 -7.1 °C -9.3 °C 34384.8 hPa Calm     77 % 0 mm
07:52 -6.8 °C -9.3 °C 34384.8 hPa Calm     75 % 0 mm
08:02 -6.6 °C -9.3 °C 34395 hPa Calm     73 % 0 mm
08:07 -6.5 °C -9.4 °C 34395 hPa Calm     72 % 0 mm
08:17 -6.4 °C -9.4 °C 34395 hPa Calm     71 % 0 mm
08:22 -6.3 °C -9.3 °C 34405.1 hPa Calm     71 % 0 mm
08:32 -5.9 °C -9.1 °C 34405.1 hPa Calm     70 % 0 mm
08:42 -5.6 °C -8.9 °C 34405.1 hPa Calm   5.1 km/h 69 % 0 mm
08:52 -5.1 °C -8.8 °C 34405.1 hPa Calm   2.6 km/h 66 % 0 mm
09:02 -4.9 °C -8.7 °C 34405.1 hPa SSE 2.6 km/h 2.6 km/h 65 % 0 mm
09:07 -4.9 °C -8.7 °C 34405.1 hPa SSE 2.6 km/h 10.3 km/h 65 % 0 mm
09:12 -4.8 °C -8.9 °C 34405.1 hPa SSE 10.3 km/h 10.3 km/h 63 % 0 mm
09:17 -4.7 °C -8.8 °C 34405.1 hPa SSW 7.7 km/h 12.9 km/h 63 % 0 mm
09:22 -4.6 °C -8.8 °C 34405.1 hPa SSW 10.3 km/h 12.9 km/h 62 % 0 mm
09:27 -4.4 °C -9 °C 34405.1 hPa South 5.1 km/h 12.9 km/h 60 % 0 mm
09:37 -4.2 °C -9.1 °C 34405.1 hPa SW 10.3 km/h 15.6 km/h 58 % 0 mm
09:42 -4.1 °C -9.1 °C 34405.1 hPa SW 7.7 km/h 15.6 km/h 57 % 0 mm
09:52 -3.7 °C -8.9 °C 34418.7 hPa South 10.3 km/h 15.6 km/h 56 % 0 mm
09:57 -3.5 °C -9.1 °C 34418.7 hPa SW 5.1 km/h 15.6 km/h 54 % 0 mm
10:02 -3.2 °C -9.3 °C 34418.7 hPa South 2.6 km/h 15.6 km/h 51 % 0 mm
10:07 -2.9 °C -9.4 °C 34405.1 hPa SSW 7.7 km/h 15.6 km/h 49 % 0 mm
10:12 -2.7 °C -9.5 °C 34418.7 hPa WSW 7.7 km/h 15.6 km/h 47 % 0 mm
10:22 -2.1 °C -9.8 °C 34418.7 hPa SW 10.3 km/h 12.9 km/h 43 % 0 mm
10:27 -1.8 °C -10.3 °C 34418.7 hPa WSW 10.3 km/h 12.9 km/h 39 % 0 mm
10:32 -1.7 °C -10.2 °C 34418.7 hPa West 12.9 km/h 12.9 km/h 39 % 0 mm
10:37 -1.6 °C -10.6 °C 34418.7 hPa SW 12.9 km/h 23.3 km/h 37 % 0 mm
10:42 -1.6 °C -10.6 °C 34418.7 hPa SW 23.3 km/h 23.3 km/h 37 % 0 mm
10:47 -1.5 °C -10.5 °C 34418.7 hPa SW 23.3 km/h 33.6 km/h 37 % 0 mm
10:57 -1.3 °C -10.8 °C 34418.7 hPa WNW 5.1 km/h 33.6 km/h 35 % 0 mm
11:12 -1 °C -10.8 °C 34418.7 hPa West 7.7 km/h 25.9 km/h 34 % 0 mm
11:17 -0.9 °C -10.7 °C 34418.7 hPa WSW 5.1 km/h 23.3 km/h 34 % 0 mm
11:32 -0.8 °C -11.1 °C 34418.7 hPa SW 20.8 km/h 25.9 km/h 32 % 0 mm
11:37 -0.7 °C -10.7 °C 34418.7 hPa West 15.6 km/h 28.5 km/h 33 % 0 mm
11:42 -0.7 °C -11 °C 34418.7 hPa West 7.7 km/h 28.5 km/h 32 % 0 mm
11:52 -0.4 °C -11.3 °C 34418.7 hPa West 20.8 km/h 25.9 km/h 30 % 0 mm
12:02 -0.4 °C -11.1 °C 34418.7 hPa West 10.3 km/h 31.1 km/h 31 % 0 mm
12:12 -0.3 °C -11.2 °C 34418.7 hPa West 7.7 km/h 31.1 km/h 30 % 0 mm
12:17 -0.3 °C -11.3 °C 34418.7 hPa WNW 7.7 km/h 25.9 km/h 30 % 0 mm
12:22 -0.2 °C -11.1 °C 34418.7 hPa West 25.9 km/h 28.5 km/h 30 % 0 mm
12:32 0.1 °C -11.2 °C 34418.7 hPa SW 15.6 km/h 25.9 km/h 29 % 0 mm
12:37 0.1 °C -10.9 °C 34418.7 hPa WSW 10.3 km/h 25.9 km/h 30 % 0 mm
12:42 0.1 °C -11.4 °C 34405.1 hPa SSW 15.6 km/h 28.5 km/h 28 % 0 mm
12:52 0.2 °C -11.4 °C 34405.1 hPa SW 5.1 km/h 25.9 km/h 28 % 0 mm
12:57 0.4 °C -11.2 °C 34405.1 hPa WNW 5.1 km/h 23.3 km/h 28 % 0 mm
13:02 0.5 °C -11.4 °C 34405.1 hPa SW 7.7 km/h 23.3 km/h 27 % 0 mm
13:12 0.4 °C -11.2 °C 34405.1 hPa WSW 12.9 km/h 18.2 km/h 28 % 0 mm
13:17 0.5 °C -11.1 °C 34405.1 hPa SSE 7.7 km/h 20.8 km/h 28 % 0 mm
13:22 0.7 °C -11.3 °C 34405.1 hPa SSW 18.2 km/h 20.8 km/h 27 % 0 mm
13:27 0.7 °C -11.6 °C 34405.1 hPa SW 7.7 km/h 23.3 km/h 26 % 0 mm
13:32 0.8 °C -12.2 °C 34405.1 hPa SSW 20.8 km/h 23.3 km/h 24 % 0 mm
13:42 0.9 °C -11.7 °C 34405.1 hPa South 7.7 km/h 28.5 km/h 25 % 0 mm
13:47 0.9 °C -12.1 °C 34405.1 hPa SW 23.3 km/h 28.5 km/h 24 % 0 mm
13:52 0.9 °C -11.7 °C 34405.1 hPa SW 5.1 km/h 28.5 km/h 25 % 0 mm
14:02 1 °C -12 °C 34405.1 hPa SW 18.2 km/h 25.9 km/h 24 % 0 mm
14:12 1.2 °C -12.2 °C 34405.1 hPa SW 10.3 km/h 25.9 km/h 23 % 0 mm
14:17 1.1 °C -11.6 °C 34405.1 hPa SSE 2.6 km/h 28.5 km/h 25 % 0 mm
14:22 1.2 °C -11.8 °C 34395 hPa ESE 7.7 km/h 28.5 km/h 24 % 0 mm
14:27 1.4 °C -12 °C 34395 hPa SW 18.2 km/h 23.3 km/h 23 % 0 mm
14:32 1.3 °C -12.1 °C 34395 hPa WSW 2.6 km/h 23.3 km/h 23 % 0 mm
14:42 1.6 °C -11.9 °C 34395 hPa WSW 10.3 km/h 20.8 km/h 23 % 0 mm
14:47 1.3 °C -11.7 °C 34395 hPa SSW 10.3 km/h 20.8 km/h 24 % 0 mm
14:52 1.4 °C -12 °C 34395 hPa SSW 7.7 km/h 20.8 km/h 23 % 0 mm
14:57 1.4 °C -12 °C 34395 hPa Calm   18.2 km/h 23 % 0 mm
15:02 1.6 °C -11.8 °C 34395 hPa SW 7.7 km/h 18.2 km/h 23 % 0 mm
15:12 1.7 °C -11.7 °C 34384.8 hPa South 5.1 km/h 10.3 km/h 23 % 0 mm
15:22 1.8 °C -11.7 °C 34384.8 hPa West 7.7 km/h 20.8 km/h 23 % 0 mm
15:32 1.6 °C -11.8 °C 34384.8 hPa ESE 12.9 km/h 28.5 km/h 23 % 0 mm
15:37 1.8 °C -11.7 °C 34384.8 hPa South 10.3 km/h 28.5 km/h 23 % 0 mm
15:42 2 °C -11.5 °C 34384.8 hPa Calm   28.5 km/h 23 % 0 mm
15:52 1.9 °C -11.6 °C 34384.8 hPa West 7.7 km/h 15.6 km/h 23 % 0 mm
15:57 1.9 °C -11.6 °C 34384.8 hPa SE 10.3 km/h 12.9 km/h 23 % 0 mm
16:07 2.1 °C -11.4 °C 34384.8 hPa South 5.1 km/h 20.8 km/h 23 % 0 mm
16:12 2.2 °C -11.4 °C 34384.8 hPa SSW 7.7 km/h 20.8 km/h 23 % 0 mm
16:17 2.1 °C -11.4 °C 34371.3 hPa WNW 2.6 km/h 18.2 km/h 23 % 0 mm
16:22 2.2 °C -11.3 °C 34371.3 hPa SSW 5.1 km/h 18.2 km/h 23 % 0 mm
16:27 2.3 °C -11.3 °C 34371.3 hPa SE 7.7 km/h 20.8 km/h 23 % 0 mm
16:32 2 °C -11.9 °C 34371.3 hPa Calm   20.8 km/h 22 % 0 mm
16:42 2.3 °C -11.3 °C 34371.3 hPa Calm   20.8 km/h 23 % 0 mm
16:52 2 °C -11.5 °C 34371.3 hPa Calm   15.6 km/h 23 % 0 mm
17:02 2 °C -11.9 °C 34371.3 hPa SW 12.9 km/h 23.3 km/h 22 % 0 mm
17:12 1.9 °C -12 °C 34361.1 hPa WSW 15.6 km/h 23.3 km/h 22 % 0 mm
17:22 2.1 °C -11.8 °C 34361.1 hPa SW 2.6 km/h 28.5 km/h 22 % 0 mm
17:27 2.3 °C -11.7 °C 34361.1 hPa Calm   18.2 km/h 22 % 0 mm
17:32 2.4 °C -11.5 °C 34361.1 hPa SW 10.3 km/h 18.2 km/h 22 % 0 mm
17:42 2.4 °C -11.6 °C 34361.1 hPa WSW 2.6 km/h 15.6 km/h 22 % 0 mm
17:52 2.2 °C -11.7 °C 34361.1 hPa East 7.7 km/h 18.2 km/h 22 % 0 mm
17:57 2.1 °C -11.8 °C 34361.1 hPa WSW 10.3 km/h 20.8 km/h 22 % 0 mm
18:02 2 °C -11.9 °C 34361.1 hPa SW 2.6 km/h 20.8 km/h 22 % 0 mm
18:12 2.3 °C -12 °C 34361.1 hPa South 2.6 km/h 20.8 km/h 21 % 0 mm
18:17 2.3 °C -11.7 °C 34361.1 hPa SW 2.6 km/h 20.8 km/h 22 % 0 mm
18:27 2.1 °C -11.8 °C 34361.1 hPa SW 2.6 km/h 12.9 km/h 22 % 0 mm
18:32 2.3 °C -11.6 °C 34361.1 hPa Calm   20.8 km/h 22 % 0 mm
18:37 2.3 °C -12 °C 34361.1 hPa SSE 2.6 km/h 20.8 km/h 21 % 0 mm
18:42 2.4 °C -11.6 °C 34361.1 hPa Calm   12.9 km/h 22 % 0 mm
18:52 2.3 °C -11.6 °C 34361.1 hPa SE 2.6 km/h 10.3 km/h 22 % 0 mm
19:02 2.1 °C -11.8 °C 34347.6 hPa SE 2.6 km/h 10.3 km/h 22 % 0 mm
19:12 2.1 °C -11.8 °C 34347.6 hPa Calm   12.9 km/h 22 % 0 mm
19:22 2.2 °C -11.7 °C 34361.1 hPa Calm   7.7 km/h 22 % 0 mm
19:32 2.2 °C -11.7 °C 34361.1 hPa Calm   5.1 km/h 22 % 0 mm
19:37 2.2 °C -11.4 °C 34347.6 hPa Calm   5.1 km/h 23 % 0 mm
19:42 2.3 °C -11.3 °C 34361.1 hPa SSE 2.6 km/h 5.1 km/h 23 % 0 mm
19:47 2.1 °C -11.4 °C 34361.1 hPa Calm   2.6 km/h 23 % 0 mm
19:52 1.9 °C -11.2 °C 34361.1 hPa East 2.6 km/h 2.6 km/h 24 % 0 mm
19:57 1.4 °C -11.3 °C 34361.1 hPa East 5.1 km/h 5.1 km/h 25 % 0 mm
20:02 1.1 °C -10.9 °C 34361.1 hPa Calm   5.1 km/h 27 % 0 mm
20:12 0.5 °C -10.8 °C 34361.1 hPa ENE 5.1 km/h 7.7 km/h 29 % 0 mm
20:22 -0.1 °C -10.5 °C 34361.1 hPa ENE 2.6 km/h 5.1 km/h 32 % 0 mm
20:27 -0.3 °C -10.4 °C 34361.1 hPa East 2.6 km/h 7.7 km/h 33 % 0 mm
20:32 -0.5 °C -10.6 °C 34361.1 hPa East 7.7 km/h 7.7 km/h 33 % 0 mm
20:37 -0.7 °C -10.5 °C 34361.1 hPa East 7.7 km/h 10.3 km/h 34 % 0 mm
20:42 -0.7 °C -10.5 °C 34361.1 hPa NE 10.3 km/h 10.3 km/h 34 % 0 mm
20:47 -0.7 °C -10.6 °C 34361.1 hPa East 2.6 km/h 12.9 km/h 34 % 0 mm
20:52 -0.8 °C -10.6 °C 34361.1 hPa ENE 5.1 km/h 12.9 km/h 34 % 0 mm
21:02 -1.2 °C -11 °C 34371.3 hPa Calm   10.3 km/h 34 % 0 mm
21:12 -1.9 °C -10.8 °C 34371.3 hPa Calm   7.7 km/h 37 % 0 mm
21:22 -2.2 °C -10.7 °C 34371.3 hPa Calm   5.1 km/h 39 % 0 mm
21:32 -2.4 °C -10.4 °C 34371.3 hPa WNW 2.6 km/h 2.6 km/h 41 % 0 mm
21:37 -2.8 °C -10.6 °C 34371.3 hPa WNW 5.1 km/h 5.1 km/h 42 % 0 mm
21:42 -3.1 °C -10.4 °C 34384.8 hPa WNW 2.6 km/h 5.1 km/h 44 % 0 mm
21:47 -3.2 °C -10.6 °C 34384.8 hPa WNW 5.1 km/h 5.1 km/h 44 % 0 mm
21:52 -3.3 °C -10.2 °C 34384.8 hPa WNW 2.6 km/h 5.1 km/h 46 % 0 mm
21:57 -3.4 °C -10.3 °C 34384.8 hPa WNW 2.6 km/h 5.1 km/h 46 % 0 mm
22:02 -3.5 °C -10.3 °C 34384.8 hPa Calm   5.1 km/h 47 % 0 mm
22:12 -3.7 °C -10.4 °C 34384.8 hPa WNW 5.1 km/h 5.1 km/h 47 % 0 mm
22:22 -3.8 °C -10.4 °C 34384.8 hPa Calm   5.1 km/h 48 % 0 mm
22:32 -3.6 °C -10.5 °C 34384.8 hPa WNW 7.7 km/h 15.6 km/h 46 % 0 mm
22:42 -3.5 °C -10.3 °C 34384.8 hPa West 2.6 km/h 10.3 km/h 47 % 0 mm
22:47 -3.6 °C -10.3 °C 34384.8 hPa Calm   7.7 km/h 47 % 0 mm
22:52 -3.5 °C -10.4 °C 34384.8 hPa North 5.1 km/h 7.7 km/h 46 % 0 mm
23:02 -3.7 °C -10.3 °C 34384.8 hPa Calm   10.3 km/h 48 % 0 mm
23:12 -3.9 °C -10.4 °C 34384.8 hPa Calm   10.3 km/h 48 % 0 mm
23:17 -3.9 °C -10.5 °C 34384.8 hPa NNW 2.6 km/h 7.7 km/h 48 % 0 mm
23:22 -4 °C -10.6 °C 34384.8 hPa North 2.6 km/h 7.7 km/h 48 % 0 mm
23:32 -4.1 °C -10.4 °C 34384.8 hPa Calm   5.1 km/h 49 % 0 mm
23:42 -4.5 °C -10.5 °C 34384.8 hPa Calm   5.1 km/h 51 % 0 mm
23:47 -4.7 °C -10.3 °C 34384.8 hPa Calm     53 % 0 mm
23:52 -4.8 °C -10.2 °C 34384.8 hPa Calm     54 % 0 mm
23:57 -4.8 °C -10.3 °C 34384.8 hPa Calm     54 % 0 mm
Meteo18
Compliments of Weather Underground - 4 mb

Script developed by  Jim McMurry - jmcmurry@mwt.net Adapted for the template by  Wim van der Kuil - Leuven-Template.eu

You find our weather info also at:

European Weather Network

Weather Underground

Equipment we use:

Weather-station
Davis Vue

Weather-program
Meteobridge

Weather-server
Raspberry PI 2 B+

Provider
1 and 1

Davis Vue

Meteobridge

Raspberry PI 2 B+

1 and 1